www.pogodaiklimat.ru

Погода и климат >> Архив погоды >> Индонезия >> Синтанг


ПОГОДА в Синтанге

  • Прогноз погоды в Синтанге
  • Монитор погоды в Синтанге

АРХИВ ПОГОДЫ в Синтанге

Время (UTC), дата Ветер
(напр.,м/с)
 
Видим.   Явления Облачность Т
(С)
Тd
(С)
f
(%)
Тe
(С)
Тes
(С)
Комфортность P
(гПа)
Po
(гПа)
Тmin
(С)
Tmax
(С)
R
(мм)
R24
(мм)
S
(см)
03 14.09 Ю 3 4000 м дым 5/3 420 м
[Cu hum Ac trans Ci fib]
+29.9 +20.5 57 +37 +47 очень
душно
1012.6 1009.4
06 14.09 ЮВ 3 5000 м дым 5/3 480 м
[Sc Ac trans Ci fib]
+34.1 +16.5 35 +37 +47 очень
душно
1009.5 1006.3
09 14.09 Ю 3 5000 м дым 5/3 450 м
[Sc Ac trans Ci sp]
+33.0 +17.7 40 +37 +39 очень
душно
1008.4 1005.2
12 14.09 штиль 0 5000 м дым 5/3 450 м
[Sc Ac trans Ci sp]
+24.2 +22.1 88 +31 +31 очень
душно
1010.0 1006.8 +34.3
15 14.09 ЮВ 2 4000 м дым 5/3 450 м
[Sc Ac trans Ci sp]
+21.7 +20.3 92 +27 +27 душно 1011.5 1008.3
18 14.09 штиль 0 3000 м дым 8/4 450 м
[Sc Ac As Ci sp]
+19.9 +19.4 97 +23 +23 комфорт 1010.3 1007.1
21 14.09 штиль 0 2000 м дым 8/3 450 м
[Sc Ac As Ci sp]
+18.9 +18.4 97 +20 +20 1010.2 1007.0
00 15.09 штиль 0 1000 м дым 4/1 450 м
[Sc Ac As Ci sp]
+21.3 +20.3 94 +26 +29 душно 1012.2 1009.0 +18.1
03 15.09 В 2 1500 м дым 5/3 450 м
[Cu hum Ac As Ci sp]
+27.6 +21.2 68 +35 +46 очень
душно
1011.5 1008.3
06 15.09 Ю 2 1500 м дым 6/4 450 м
[Cu hum Ac As Ci fib]
+33.1 +20.1 46 +39 +49 очень
душно
1008.0 1004.8
09 15.09 С 2 1500 м дым {туман} 5/4 420 м
[Cu hum Ac As]
+30.5 +20.0 53 +37 +39 очень
душно
1007.0 1003.8
12 15.09 штиль 0 1500 м дым {туман} 8/5 420 м
[Cu hum Ac As]
+24.2 +22.1 88 +31 +31 очень
душно
1009.1 1005.9 +34.0
15 15.09 штиль 0 1000 м дым {туман} 5/4 420 м
[Cu hum Ac As]
+22.4 +21.3 94 +29 +29 очень
душно
1010.7 1007.5
18 15.09 штиль 0 1000 м дым {туман} 5/4 420 м
[Cu hum Ac As]
+20.9 +20.1 95 +25 +25 комфорт 1010.0 1006.8
21 15.09 штиль 0 1000 м дым {туман} 5/4 420 м
[Cu hum Ac As]
+20.0 +19.6 98 +23 +23 комфорт 1009.9 1006.7
00 16.09 штиль 0 200 м дым {туман} 4/4 420 м
[Sc Ac As]
+21.1 +20.1 94 +26 +28 душно 1011.4 1008.2 +19.8
03 16.09 штиль 0 2000 м дым {туман} 3/3 450 м
[Sc]
+28.9 +21.4 64 +37 +54 опасность
солнечного
удара
1011.4 1008.2
06 16.09 В 2 200 м дым {туман} 3/3 420 м
[Sc]
+32.3 +20.4 50 +39 +53 опасность
солнечного
удара
1007.8 1004.6
09 16.09 штиль 0 300 м дым {туман} ?/? +33.5 +20.9 48 +41 +41 опасность
перегрева
1007.2 1004.0
12 16.09 штиль 0 400 м дым {туман} 4/4 420 м
[Sc]
+25.8 +23.5 87 +35 +35 очень
душно
1008.3 1005.1 +33.9
15 16.09 штиль 0 300 м дым {туман} 4/4 420 м
[Sc]
+23.7 +22.7 94 +31 +31 очень
душно
1009.9 1006.7 +33.9
18 16.09 штиль 0 300 м дым {туман} 4/4 420 м
[Sc]
+22.1 +21.3 95 +29 +29 очень
душно
1009.3 1006.1
21 16.09 штиль 0 200 м дым {туман} 4/4 420 м
[Sc]
+21.3 +20.9 98 +27 +27 душно 1009.9 1006.7
00 17.09 штиль 0 200 м туман ?/? +22.6 +22.0 96 +30 +30 очень
душно
1011.6 1008.4 +21.2
03 17.09 ЮВ 2 300 м дым {туман} ?/? +29.3 +22.8 68 +39 +39 очень
душно
1011.7 1008.5
06 17.09 штиль 0 400 м дым {туман} ?/? +32.6 +21.9 53 +41 +41 опасность
перегрева
1008.6 1005.4
09 17.09 Ю 2 500 м дым {туман} 4/4 420 м
[Cu hum]
+33.1 +21.3 50 +41 +43 опасность
перегрева
1007.7 1004.5
12 17.09 штиль 0 400 м дым {туман} 4/4 420 м
[Cu hum]
+26.6 +24.1 86 +37 +37 очень
душно
1009.5 1006.3 +33.8
15 17.09 штиль 0 400 м дым {туман} 4/4 420 м
[Cu hum]
+23.9 +23.1 95 +32 +32 очень
душно
1011.1 1007.9
18 17.09 штиль 0 400 м дым {туман} 4/4 420 м
[Cu hum]
+22.0 +21.3 96 +29 +29 очень
душно
1010.1 1006.9
21 17.09 Ю 2 400 м дым {туман} 4/4 450 м
[Sc]
+22.1 +21.1 94 +29 +29 очень
душно
1010.4 1007.2
00 18.09 ЮВ 2 400 м дым {туман} ?/? +23.6 +22.4 93 +31 +31 очень
душно
1012.5 1009.3 +21.6
03 18.09 ЮВ 4 500 м дым {туман} ?/? +30.4 +22.3 62 +39 +39 очень
душно
1012.0 1008.8
06 18.09 штиль 0 800 м дым {туман} 4/4 420 м
[Cu hum]
+33.6 +21.0 48 +41 +57 опасность
перегрева
1009.0 1005.8
09 18.09 штиль 0 800 м дым {туман} 4/4 420 м
[Cu hum]
+33.5 +20.9 48 +41 +44 опасность
перегрева
1007.8 1004.6
12 18.09 штиль 0 800 м дым {туман} 4/4 420 м
[Cu hum]
+26.1 +22.4 80 +34 +34 очень
душно
1009.6 1006.4 +35.0
15 18.09 штиль 0 800 м дым {туман} 4/4 420 м
[Cu hum]
+22.8 +21.7 94 +31 +31 очень
душно
1011.5 1008.3
18 18.09 штиль 0 500 м дым {туман} 4/4 420 м
[Cu hum]
+21.7 +21.0 96 +28 +28 душно 1010.3 1007.1
21 18.09 штиль 0 500 м дым {туман} 4/4 420 м
[Cu hum]
+20.4 +20.0 98 +24 +24 комфорт 1010.8 1007.6
00 19.09 штиль 0 400 м дым {туман} 4/4 420 м
[Cu hum]
+23.3 +21.6 90 +31 +34 очень
душно
1013.2 1010.0 +20.2
03 19.09 ЮВ 4 400 м дым {туман} 4/4 420 м
[Cu hum]
+29.6 +21.6 62 +38 +46 очень
душно
1011.7 1008.5
06 19.09 В 3 500 м дым {туман} 3/3 420 м
[Cu hum]
+33.8 +20.7 46 +41 +52 опасность
перегрева
1009.0 1005.8
09 19.09 штиль 0 700 м дым {туман} 4/4 420 м
[Cu hum]
+33.4 +20.7 47 +40 +43 очень
душно
1007.6 1004.4
12 19.09 штиль 0 700 м дым {туман} 3/3 420 м
[Cu hum]
+26.1 +23.6 86 +35 +35 очень
душно
1009.3 1006.1 +34.8
15 19.09 штиль 0 700 м дым {туман} 3/3 420 м
[Cu hum]
+24.0 +23.2 95 +32 +32 очень
душно
1010.8 1007.6
18 19.09 штиль 0 700 м дым {туман} 3/3 420 м
[Cu hum]
+22.8 +22.2 96 +31 +31 очень
душно
1009.9 1006.7
21 19.09 штиль 0 700 м дым {туман} 3/3 420 м
[Cu hum]
+22.2 +21.6 96 +29 +29 очень
душно
1010.5 1007.3
00 20.09 штиль 0 300 м дым {туман} ясно +23.4 +22.4 94 +32 +36 очень
душно
1012.0 1008.8 +21.5
03 20.09 ЮВ 2 100 м дым {туман} ясно +28.8 +22.1 67 +37 +58 опасность
солнечного
удара
1011.3 1008.1
06 20.09 штиль 0 400 м дым {туман} ясно +32.4 +21.8 54 +41 +67 опасность
перегрева
1008.7 1005.5
09 20.09 штиль 0 50 км дым {туман} ?/? +32.5 +22.2 55 +42 +42 опасность
перегрева
1007.6 1004.4
12 20.09 штиль 0 300 м дым {туман} ?/? +27.2 +23.4 80 +37 +37 очень
душно
1008.8 1005.6 +33.2
15 20.09 штиль 0 300 м дым {туман} ?/? +23.6 +22.4 93 +31 +31 очень
душно
1010.4 1007.2
18 20.09 штиль 0 300 м дым {туман} ?/? +23.3 +22.4 95 +32 +32 очень
душно
1009.9 1006.7

 

Местоположение метеостанции Синтанг (Индонезия): широта 0.12 долгота 111.53 высота над уровнем моря 30 м.

В архиве по умолчанию представлена погода в Синтанге за последнюю неделю. Архивные данные за месяц целиком и за предыдущие месяцы, начиная с января 2011 года, Вы можете получить, выбрав интересующий диапазон дат из раскрывающегося списка и нажав кнопку "Ввод!".


*Определитесь, кто Вы:
робот инопланетянин человек

Внимание! Время в таблицах - всемирное. Для получения местного времени необходимо прибавить поправку, которая равна 7 ч.

Смотрите также архив погоды в соседних городах и на ближайших метеорологических станциях:

Погода в Нангапинохе (Индонезия) (59 км)
Погода на Путусиббау (Индонезия) (176 км)
Погода в Кучинге (Малайзия) (202 км)
Погода в Понтианаке (Индонезия) (239 км)
Погода в Сибу (Малайзия) (248 км)
Погода в Кетапанге (Индонезия) (280 км)
Погода в Паоанкарая (Индонезия) (302 км)
Погода в Парохе (Индонезия) (309 км)
Погода в Пангкалан-Буне (Индонезия) (314 км)
Погода в Бинталу (Малайзия) (381 км)

Пояснения к столбцам:

Ветер - указаны скорость ветра в м/с - средняя за 10 мин, порывы в срок и между сроками (в фигурных скобках) и направление, откуда дует ветер: С - северный, СВ - северо-восточный, В - восточный, ЮВ - юго-восточный, Ю - южный, ЮЗ - юго-западный, З - западный, СЗ - северо-западный.
Видимость - горизонтальная дальность видимости в метрах или километрах. При видимости от 1 до 10 км при отсутствии осадков обычно наблюдается дымка, при ухудшении видимости до 1 км и менее - туман. В сухую погоду видимость может ухудшаться дымом, пылью или мглою.
Явления - указаны атмосферные явления, наблюдавшиеся в срок или в последний час перед сроком; фигурными скобками обозначены явления, наблюдавшиеся между сроками (за 1-3 часа до срока); квадратными скобками обозначены град или гололедные отложения с указанием их диаметра в мм.
Облачность - указаны через наклонную черту общая и нижняя облачность в баллах и высота нижней границы облаков в метрах; квадратными скобками обозначены формы облаков: Ci - перистые, Cs - перисто-слоистые, Cc - перисто-кучевые, Ac - высококучевые, As - высокослоистые, Sc - слоисто-кучевые, Ns - слоисто-дождевые, Cu - кучевые, Cb - кучево-дождевые. Подробнее классификацию облаков см. в Атласе облаков (PDF).
T - Температура воздуха - температура, измеренная на высоте 2 м над землей.
Td - Температура точки росы - температура, при понижении до которой содержащийся в воздухе водяной пар достигнет насыщения.
f - Относительная влажность воздуха - влажноcть воздуха, измеренная на высоте 2 м над землей.
Te - Эффективная температура - температура, которую ощущает одетый по сезону человек в тени. Характеристика душности погоды. При расчете учитывается влияние влажности воздуха и скорости ветра на теплоощущения человека.
Tes - Эффективная температура на солнце - температура, которую ощущает человек, с поправкой на солнечный нагрев. Характеристика знойности погоды. Зависит от высоты солнца над горизонтом, облачности и скорости ветра. Ночью, в пасмурную погоду, а также при ветре 12 м/с и более поправка равна нулю.
P - Атмосферное давление - приведенное к уровню моря атмосферное давление.
Po - Атмосферное давление - измеренное на уровне метеостанции атмосферное давление.
Tmin - Минимальная температура - минимум температуры воздуха на высоте 2 м над землей.
Tmax - Максимальная температура - максимум температуры воздуха на высоте 2 м над землей.
R - Количество осадков - Количество выпавших осадков за период времени, мм. При наведении курсора мыши на число - период времени, за который выпало указанное количество осадков.
R24 - Количество осадков - Количество выпавших осадков за 24 часа, мм.
S - Снежный покров - Высота снежного покрова, см. При наведении курсора мыши на число - состояние снежного покрова и степень покрытия местности в баллах.